Regional Weather Roundup
Issued by NWS Kansas City/Pleasant Hill, MO

Home | Current Version | Previous Version | Graphics & Text | Print | Product List | Glossary Off
Versions: 1 2 3 4 5 6 7 8 9 10 11 12 13 14 15 16 17 18 19 20 21 22 23 24 25 26 27 28 29 30 31 32 33 34 35 36 37 38 39 40 41 42 43 44 45 46 47 48 49 50

000
ASUS43 KEAX 311504
RWREAX

WEATHER ROUNDUP FOR EASTERN KANSAS AND NORTHWEST MISSOURI
NATIONAL WEATHER SERVICE KANSAS CITY/PLEASANT HILL MO
900 AM CST SAT JAN 31 2015

KSZ040-057-103>105-MOZ028-029-037-043-311600-
...KANSAS CITY METROPOLITAN AREA...

CITY           SKY/WX    TMP DP  RH WIND       PRES   REMARKS
K.C. INTL      RAIN      35  34  96 SE8       30.23S FOG     WCI  29
K.C. DOWNTOWN  LGT RAIN  36  34  92 NE5       30.25S FOG     WCI  32
LEES SUMMIT    LGT RAIN  35  33  92 SE6       30.25S FOG     WCI  30
OLATHE - IXD   LGT RAIN  37  36  96 E6        30.23S FOG     WCI  32
OLATHE - OJC   LGT RAIN  37  36  96 E3        30.23S FOG
LAWRENCE       LGT RAIN  35  33  92 E9        30.22F FOG     WCI  28

$$

MOZ001>008-011>017-020>025-030>033-038>040-044>046-053-054-311600-
...NORTHERN AND CENTRAL MISSOURI...

CITY           SKY/WX    TMP DP  RH WIND       PRES   REMARKS
ST. JOSEPH     LGT RAIN  35  35 100 SE3       30.24F FOG
MOSBY          MIX PCPN  32  32 100 CALM      30.27R
WARRENSBURG    DRIZZLE   34  32  93 CALM      30.28S
WHITEMAN AFB   LGT RAIN  34  31  88 SE6       30.28R WCI  28
CLINTON        LGT RAIN  36  32  87 E5        30.28F WCI  32
SEDALIA        LGT RAIN  36  31  82 S8        30.31R WCI  30
WARSAW         NOT AVBL
MARSHALL       MIX PCPN  36  32  87 CALM      30.28F
CHILLICOTHE      N/A     34  32  92 S3        30.28S
KIRKSVILLE     MIX PCPN  32  28  85 SW7       30.27R FOG     WCI  26

$$

MOZ041-047>049-056>058-063>065-088>090-097-311600-
...EASTERN AND SOUTHERN MISSOURI...

CITY           SKY/WX    TMP DP  RH WIND       PRES   REMARKS
ST. LOUIS INTL CLOUDY    37  22  54 SW5       30.33F WCI  33
SPIRIT OF STL  CLOUDY    33  27  78 CALM      30.33S
COLUMBIA       CLOUDY    35  23  61 S7        30.30S WCI  29
JEFFERSON CITY CLOUDY    34  24  67 SE3       30.31F
MEXICO         CLOUDY    36  28  75 SW5       30.29  WCI  32
HANNIBAL       CLOUDY    34  21  60 S10       30.30R WCI  26
ROLLA          CLOUDY    36  24  62 S12       30.29S WCI  28
LEBANON        CLOUDY    37  23  56 E3        30.28F
OSAGE BEACH    CLOUDY    37  21  52 SE5       30.29S WCI  34
SPRINGFIELD    CLOUDY    39  26  59 S12       30.26R WCI  32
BRANSON        CLOUDY    39  25  56 SE9       30.27R WCI  33
NEVADA         CLOUDY    36  36 100 CALM      30.26R FOG
JOPLIN         CLOUDY    42  26  53 SE6       30.25R
WEST PLAINS    CLOUDY    35  24  64 E6        30.31F WCI  30

$$

IAZ060-094-KSZ022-034>040-054-083-096-NEZ052-066-093-311600-
...KANSAS...SOUTHEAST NEBRASKA AND IOWA...

CITY           SKY/WX    TMP DP  RH WIND       PRES   REMARKS
TOPEKA         CLOUDY    37  36  96 SE6       30.21S WCI  32
MANHATTAN      LGT RAIN  37  36  96 S6        30.17F FOG     WCI  32
EMPORIA        LGT RAIN  37  35  92 SE8       30.19S WCI  31
CHANUTE        CLOUDY    40  32  73 SE7       30.23S
WICHITA        LGT RAIN  35  30  82 SE8       30.14F WCI  29
OMAHA          LGT RAIN  37  34  89 S10       30.16S WCI  30
LINCOLN        MIX PCPN  33  32  96 S8        30.14F FOG     WCI  26
FALLS CITY     RAIN      34  33  96 S5        30.20F FOG     WCI  30
LAMONI         MIX PCPN  34  32  92 SW12      30.22S FOG     WCI  25
DES MOINES     CLOUDY    37  31  78 SW8       30.19S WCI  31

$$




USA.gov is the U.S. government's official web portal to all federal, state and local government web resources and services.